{"data":{"norad_id":69172,"intl_designator":"2026-111AA","name":"STARLINK-37472","alt_names":[],"object_type":"PAYLOAD","status":"ACTIVE","operator":null,"country":"US","launch_date":"2026-05-21","launch_site_code":"AFETR","launch_vehicle":null,"mission":null,"orbit_class":"UNKNOWN","rcs_meters":null,"size_class":null,"mass_kg":null,"dimensions":null,"purposes":["comms"],"wikipedia_slug":null,"has_3d_model":false,"image_url":null,"decayed_at":null,"tle_current":{"epoch":"2026-09-20T04:17:27.913056Z","epoch_age_seconds":54728,"freshness":"FRESH","line1":"1 69172U 26111AA  26263.17879529  .00014906  00000+0  45140-3 0  9999","line2":"2 69172  53.1593  66.9249 0000797  85.9085 274.2008 15.34400492 18854","mean_motion":15.34400492,"eccentricity":7.97e-5,"inclination_deg":53.1593,"raan_deg":66.9249,"arg_perigee_deg":85.9085,"mean_anomaly_deg":274.2008,"bstar":0.0004514,"rev_number":1885,"period_min":93.847727989389,"perigee_km":462.15656302921,"apogee_km":463.24699273041,"semimajor_km":6840.8387778798,"source":"CELESTRAK","updated_at":"2026-09-20T09:00:44.094372Z"}}}